Wind_Speed
10 10 11 12 14 16 19 21 23 21 19 17 16 16 17 18 17 18 19 21 21 20 20 19 17 17 16 15 14 14 12 14
12 12 14 15 16 19 21 21 21 20 19 18 18 17 17 18 18 19 20 21 21 21 23 23 22 21 20 19 19 18 16 15
15 15 16 17 18 21 22 21 19 18 19 20 20 21 20 20 20 20 20 21 23 24 25 25 23 23 22 23 24 22 20 19
17 16 18 20 22 22 23 20 18 19 20 21 22 23 22 22 23 23 23 22 23 24 25 28 29 28 28 28 27 27 25 22
18 19 21 23 24 23 22 20 19 20 21 22 23 23 22 22 23 23 24 24 24 25 25 26 27 28 28 30 29 28 27 26
22 23 23 23 23 22 22 21 20 21 22 23 23 23 23 22 22 23 24 25 26 27 27 28 29 30 30 30 30 31 30 29
25 26 24 23 22 23 23 22 21 22 23 24 24 23 23 23 23 24 24 25 26 28 29 30 30 31 33 33 32 32 31 33
26 25 24 23 24 25 26 25 24 26 26 25 25 24 23 23 24 25 25 26 26 27 28 29 30 31 31 33 34 33 33 33
27 26 25 24 24 25 27 27 28 29 30 28 26 25 24 24 25 25 25 25 25 26 27 28 28 29 30 31 31 32 34 34
26 25 25 25 26 26 28 29 29 30 30 29 27 25 25 25 25 25 26 26 26 27 27 28 28 29 29 30 30 30 31 34
27 28 27 27 27 28 30 31 31 30 31 31 28 25 25 26 27 26 26 26 26 26 26 28 28 28 27 27 29 31 30 30
27 28 28 27 28 29 31 32 32 31 30 29 28 25 25 27 27 27 27 27 26 25 25 27 28 28 27 27 28 29 29 29
27 27 28 28 28 29 32 33 34 34 33 29 28 27 26 28 28 28 27 27 26 26 26 27 29 30 31 28 28 31 28 29
29 28 29 29 28 29 31 33 35 34 32 30 29 28 28 27 27 27 26 27 27 28 28 29 31 32 34 33 33 29 29 29
26 26 28 29 30 30 31 34 33 31 30 30 29 28 28 27 27 28 27 27 28 29 29 30 32 33 35 34 35 33 33 26
23 22 24 27 29 29 29 30 29 28 28 28 28 28 27 26 26 26 26 27 29 31 32 32 33 32 32 32 33 34 34 35
28 25 24 24 25 26 25 25 24 25 26 27 27 28 26 24 24 25 27 30 31 32 33 32 31 30 30 30 31 33 35 40
30 28 25 24 22 21 21 22 22 23 25 26 26 26 23 24 26 29 31 33 32 31 30 30 29 29 29 31 32 33 35 40
32 30 27 25 21 18 18 20 22 23 23 22 22 23 24 27 30 33 33 32 31 30 30 29 29 28 28 29 31 33 35 37
31 24 23 22 18 18 20 20 18 19 20 21 21 24 27 30 32 31 31 30 30 30 30 29 29 28 28 28 29 31 33 36
Wind_Direction
227 239 253 270 286 297 303 309 311 309 306 305 301 294 287 284 281 273 266 262 262 263 262 259 256 261 266 271 271 271 272 275
245 256 266 278 292 299 303 309 309 304 303 303 300 296 292 284 276 270 268 266 268 264 264 264 265 258 257 262 265 268 269 268
259 264 272 284 292 297 302 305 301 301 301 300 298 295 290 285 282 276 269 266 265 265 266 267 268 268 264 264 261 260 264 264
265 269 282 289 293 295 298 297 296 298 300 301 297 292 288 286 284 283 282 278 273 269 266 267 268 266 265 263 261 261 256 257
267 274 279 285 290 291 290 289 291 294 297 297 293 290 286 284 283 281 280 280 278 277 276 272 271 270 267 263 261 260 258 256
278 280 282 284 284 282 281 283 288 292 295 294 290 287 287 286 282 279 278 278 279 278 277 276 276 274 273 270 266 260 257 259
280 283 284 283 279 278 281 285 289 293 296 294 292 289 286 285 284 283 281 278 277 278 278 276 274 273 274 274 272 270 267 262
280 278 277 275 274 279 283 290 295 300 300 295 290 288 286 285 285 285 284 282 280 278 276 275 276 275 273 271 271 271 271 268
274 273 271 271 273 280 285 290 294 298 301 296 291 287 286 288 289 288 286 285 284 284 282 280 278 276 275 273 272 270 268 268
270 270 271 272 274 278 281 285 291 296 298 294 291 290 292 293 291 290 289 287 285 284 282 282 282 282 281 282 281 276 268 263
272 271 268 268 270 272 274 279 287 293 295 292 290 288 289 290 291 291 289 287 285 285 285 284 280 280 281 281 282 281 279 275
275 271 267 267 269 272 276 282 289 294 292 287 286 288 292 293 294 293 291 290 288 287 287 285 284 282 279 281 282 281 281 280
273 268 270 271 274 277 282 289 292 292 289 286 287 291 295 296 296 295 293 291 289 288 288 287 288 287 284 280 280 279 278 276
282 279 277 277 278 281 285 287 289 290 289 287 288 294 298 298 296 294 293 293 292 292 292 293 294 294 294 293 286 276 274 274
294 286 279 277 278 280 282 284 286 286 286 287 291 297 299 298 297 296 296 296 295 296 297 298 299 299 300 301 298 290 282 269
298 296 286 281 279 280 282 284 284 284 287 292 297 298 299 298 297 296 298 299 300 301 301 300 300 299 299 300 301 302 299 286
308 303 289 282 280 280 281 282 283 286 290 295 297 299 301 301 299 300 301 302 302 300 299 298 298 297 296 296 297 300 303 301
309 313 301 290 284 283 282 283 286 289 292 294 295 296 299 299 300 302 303 303 301 299 299 299 299 300 301 301 301 300 297 296
310 306 294 286 279 277 280 283 289 292 292 292 294 297 301 302 303 304 303 301 301 301 301 301 302 303 304 306 306 304 302 298
293 291 280 274 277 281 284 288 293 297 297 296 298 299 301 303 303 304 304 303 304 304 304 305 305 305 306 307 308 307 307 305
Height
3161 3162 3162 3163 3163 3162 3161 3160 3157 3154 3152 3150 3149 3147 3146 3145 3143 3143 3142 3141 3140 3140 3139 3138 3137 3137 3137 3137 3137 3136 3136 3135
3159 3160 3160 3160 3160 3158 3157 3155 3153 3151 3149 3147 3146 3144 3142 3141 3139 3138 3137 3137 3136 3135 3135 3134 3133 3133 3132 3133 3132 3132 3133 3132
3156 3156 3156 3156 3155 3153 3151 3151 3149 3147 3145 3144 3142 3141 3139 3137 3136 3134 3133 3132 3131 3131 3130 3130 3130 3130 3129 3128 3128 3128 3128 3128
3152 3153 3151 3151 3150 3148 3146 3147 3146 3143 3142 3140 3138 3136 3135 3133 3131 3130 3129 3128 3126 3125 3125 3124 3123 3123 3123 3123 3122 3123 3123 3123
3148 3148 3146 3145 3144 3143 3142 3142 3142 3140 3138 3136 3133 3131 3130 3128 3128 3126 3124 3123 3121 3120 3118 3118 3117 3116 3116 3116 3116 3116 3117 3118
3145 3144 3142 3141 3140 3138 3137 3137 3137 3135 3134 3131 3129 3127 3125 3123 3122 3121 3119 3118 3116 3115 3114 3112 3111 3109 3108 3109 3108 3109 3110 3111
3141 3140 3138 3137 3136 3135 3133 3133 3132 3130 3129 3127 3125 3123 3121 3119 3116 3115 3114 3112 3111 3109 3108 3106 3105 3104 3103 3102 3102 3102 3103 3104
3136 3135 3133 3132 3132 3131 3129 3128 3127 3126 3124 3122 3120 3118 3116 3114 3112 3109 3107 3106 3104 3102 3101 3100 3098 3097 3096 3095 3095 3095 3096 3096
3130 3129 3128 3127 3126 3126 3125 3124 3123 3122 3120 3118 3115 3113 3111 3108 3107 3104 3101 3099 3097 3096 3095 3093 3092 3090 3089 3089 3088 3088 3088 3088
3124 3123 3122 3121 3120 3119 3117 3117 3116 3116 3113 3111 3109 3108 3105 3103 3100 3098 3096 3093 3092 3090 3088 3086 3085 3084 3082 3081 3079 3080 3080 3079
3118 3117 3116 3116 3116 3113 3110 3109 3110 3110 3107 3105 3103 3102 3099 3096 3094 3092 3089 3087 3085 3083 3081 3079 3078 3077 3076 3075 3073 3072 3071 3071
3115 3113 3112 3112 3110 3108 3105 3104 3104 3104 3101 3099 3097 3096 3093 3090 3087 3085 3083 3081 3079 3077 3075 3072 3070 3070 3069 3068 3066 3064 3064 3063
3109 3108 3107 3107 3106 3103 3101 3100 3099 3097 3095 3094 3092 3090 3088 3084 3081 3079 3077 3075 3073 3071 3069 3066 3063 3061 3060 3062 3060 3057 3057 3055
3104 3104 3103 3102 3101 3099 3097 3095 3093 3091 3089 3088 3088 3085 3083 3080 3077 3074 3071 3068 3066 3063 3062 3060 3057 3054 3051 3051 3049 3052 3048 3046
3099 3098 3096 3095 3094 3093 3092 3090 3088 3085 3083 3081 3081 3080 3077 3074 3072 3068 3066 3063 3060 3057 3055 3052 3050 3047 3042 3041 3038 3037 3035 3039
3093 3093 3092 3090 3088 3087 3085 3084 3082 3080 3078 3076 3073 3072 3070 3068 3065 3063 3060 3057 3054 3051 3048 3045 3043 3041 3038 3034 3031 3027 3024 3023
3089 3087 3086 3084 3082 3083 3081 3080 3078 3076 3074 3071 3068 3065 3064 3062 3059 3057 3055 3052 3049 3045 3042 3040 3036 3034 3032 3030 3026 3021 3017 3011
3085 3082 3081 3079 3078 3077 3076 3075 3073 3071 3068 3065 3063 3060 3058 3055 3053 3051 3048 3044 3041 3038 3034 3031 3029 3026 3023 3020 3017 3014 3011 3005
3080 3079 3076 3074 3073 3072 3071 3070 3069 3066 3063 3060 3058 3055 3052 3050 3047 3043 3040 3036 3033 3029 3026 3023 3020 3018 3015 3012 3009 3005 3003 3000
3076 3073 3071 3070 3068 3068 3067 3065 3062 3061 3059 3056 3054 3051 3049 3044 3040 3036 3032 3029 3025 3021 3017 3014 3012 3010 3008 3006 3003 2999 2995 2992